Flag for U.S.A. Weather past 2 weeks in San Francisco, California, U.S.A.

Now
53 °F

Partly sunny.


Feels Like: 53 °F
Forecast: 51 / 64 °F
Wind: No wind

Location: San Francisco International Airport

Current Time: Apr 19, 2015 at 8:57:07 AM

Latest Report: Apr 19, 2015 at 7:56 AM


Visibility: 10 mi

Pressure: 29.99 "Hg

Humidity: 93%

Dew point: 51 °F

Location of San FranciscoLocation

Historic Weather in San Francisco — Graph

°F

San Francisco temperature yesterday

Maximum temperature yesterday: 65 °F (at 1:56 PM)
Minimum temperature yesterday: 49 °F (at 6:56 AM)
Average temperature yesterday: 55 °F

Past Weeks' High & Low Weather Summary

 TemperatureHumidityPressure
High78 °F (Apr 16, 2:56 PM)100% (Apr 5, 11:56 AM)30.35 "Hg (Apr 5, 11:56 AM)
Low46 °F (Apr 6, 6:56 AM)20% (Apr 16, 2:56 PM)29.77 "Hg (Apr 7, 4:56 AM)
Average57 °F71%30.04 "Hg
* Reported Apr 4 7:56 AM — Apr 19 7:56 AM, San Francisco, Weather by CustomWeather, © 2015

Note: Actual official high and low records may vary slightly from our data, if they occured in-between our weather recording intervals... More about our weather records

Advertising

San Francisco weather history for previous 24 hours

 ConditionsComfort  
Time TempWeatherWind HumidityBarometerVisibility
7:56 AM
Sun, Apr 19
53 °FPartly sunny.No wind93%29.99 "Hg10 mi
6:56 AM52 °FPassing clouds.No wind97%29.98 "Hg10 mi
5:56 AM52 °FLow clouds.5 mph100%29.96 "Hg10 mi
4:56 AM52 °FLow clouds.5 mph100%29.96 "Hg10 mi
3:56 AM51 °FLow clouds.7 mph100%29.97 "Hg10 mi
2:56 AM51 °FClear.7 mph100%29.95 "Hg10 mi
1:56 AM51 °FPassing clouds.9 mph100%29.95 "Hg10 mi
12:56 AM51 °FPassing clouds.9 mph100%29.96 "Hg10 mi
11:56 PM
Sat, Apr 18
52 °FPassing clouds.12 mph100%29.95 "Hg10 mi
10:56 PM52 °FPassing clouds.12 mph100%29.96 "Hg10 mi
9:56 PM52 °FPassing clouds.14 mph100%29.96 "Hg10 mi
8:56 PM52 °FPassing clouds.16 mph100%29.95 "Hg10 mi
7:56 PM53 °FScattered clouds.16 mph96%29.93 "Hg10 mi
6:56 PM56 °FScattered clouds.20 mph90%29.92 "Hg10 mi
5:56 PM60 °FScattered clouds.21 mph75%29.93 "Hg10 mi
4:56 PM62 °FScattered clouds.20 mph70%29.93 "Hg10 mi
3:56 PM63 °FPassing clouds.18 mph68%29.95 "Hg10 mi
2:56 PM64 °FPassing clouds.21 mph65%29.97 "Hg10 mi
1:56 PM65 °FPassing clouds.16 mph63%29.98 "Hg10 mi
12:56 PM63 °FPassing clouds.7 mph70%30.01 "Hg10 mi
11:56 AM61 °FPassing clouds.6 mph75%30.03 "Hg10 mi
10:56 AM58 °FPassing clouds.6 mph84%30.05 "Hg9 mi
9:56 AM56 °FPassing clouds.5 mph87%30.04 "Hg10 mi
8:56 AM53 °FPartly sunny.No wind96%30.05 "Hg10 mi
Weather by CustomWeather, © 2015

See weather overviewHow to use our weather pages